Retour au catalogue

COSMOS 2251 DEB

ActifLEO
NORAD 35459·DEBRIS·🇷🇺 Russia

Lancé Jun 16, 1993 depuis Plesetsk Cosmodrome

Loading…

Prochains Passages (prochaines 24 heures)

TLE

PériméSource: Space-Track

Époque: Sep 8, 2026, 03:32 UTC

1 35459U 93036ALD 26251.14763630  .00000416  00000-0  14677-3 0  9992
2 35459  73.8717  46.3676 0017402 297.0146  62.9230 14.37843026622332

Suivez COSMOS 2251 DEB en temps réel avec AllMySat

Download on the App Store